Hourly Data Report for October 21, 2018

MONTREAL INTL A
QUEBEC
Current Station Operator: NAVCAN

45°28'14.000" N
73°44'27.000" W
36.00 m
7025251
71627
YUL

Download Data

Hourly Data (October 2018)
Hourly Data Report for October 21, 2018
TIME
LST
Temp Definition
°C
Dew Point Definition
°C
Rel Hum Definition
%
Precip. Amount Definition
mm

Wind Dir Definition
10's deg

Wind Spd Definition
km/h
Visibility Definition
km
Stn Press Definition
kPa
Hmdx Definition


Wind Chill Definition


Weather Definition


00:00 2.4 -2.0 73   27 9 24.1 100.18     LegendNANA
01:00 3.5 -1.8 69   28 18 24.1 100.23     Mostly Cloudy
02:00 3.0 -3.1 64   30 17 24.1 100.29     LegendNANA
03:00 3.0 -3.3 63   27 11 24.1 100.33     LegendNANA
04:00 3.0 -4.3 59   28 21 24.1 100.41     Mostly Cloudy
05:00 2.8 -5.0 56   30 27 24.1 100.48     LegendNANA
06:00 2.5 -6.0 54   31 21 24.1 100.57     LegendNANA
07:00 2.4 -5.8 55   31 20 48.3 100.70     Mostly Cloudy
08:00 2.4 -5.8 55   30 19 48.3 100.80     LegendNANA
09:00 2.3 -4.7 60   28 26 24.1 100.85     Snow Showers
10:00 2.6 -7.4 48   32 24 24.1 100.92     Cloudy
11:00 3.0 -7.1 47   30 32 24.1 100.97     LegendNANA
12:00 4.2 -7.0 44   29 33 24.1 100.95     LegendNANA
13:00 4.0 -5.6 49   30 17 24.1 100.98     Mostly Cloudy
14:00 3.9 -7.1 45   29 26 24.1 101.01     LegendNANA
15:00 3.7 -7.3 45   28 25 24.1 101.03     LegendNANA
16:00 3.8 -7.5 44   28 33 24.1 101.07     Mostly Cloudy
17:00 3.5 -6.6 48   28 27 24.1 101.15     LegendNANA
18:00 3.0 -6.0 52   28 18 24.1 101.21     LegendNANA
19:00 2.7 -6.3 51   28 16 24.1 101.25     Mostly Cloudy
20:00 1.8 -5.8 57   28 15 24.1 101.27     LegendNANA
21:00 1.1 -5.6 61   28 13 24.1 101.33     LegendNANA
22:00 -0.2 -4.4 73   25 13 24.1 101.38   -4 Mainly Clear
23:00 0.7 -4.6 68   27 13 24.1 101.40     LegendNANA

Notes on Data Quality.

Legend

  • E = Estimated
  • M = Missing
  • NA = Not Available*
  • [empty] = Indicates an unobserved value
Date modified: